This demonstration page uses our WeatherBlox Daily Observations layout. Learn more.

Left ArrowRight Arrow

Hourly Observations for September 22, 2017

Temp ( °F °C ) Dew Point ( °F °C ) Humidity (%) Winds ( mph kmh ) Pressure ( in mb ) Visibility ( mi km ) Precip ( " mm )
12:12 am 00:12 Clear 68 20 66 19 94 94 N N/A 30.09 1019 10 16 N/A
12:32 am 00:32 Clear 68 20 68 20 100 100 N N/A 30.09 1019 10 16 N/A
12:51 am 00:51 Clear 68 20 66 19 94 94 N N/A 30.09 1019 7 11 N/A
1:12 am 01:12 Clear 68 20 66 19 94 94 N N/A 30.09 1019 7 11 N/A
1:32 am 01:32 Clear 68 20 66 19 94 94 N N/A 30.09 1019 10 16 N/A
1:51 am 01:51 Clear 66 19 66 19 100 100 N N/A 30.09 1019 7 11 N/A
2:12 am 02:12 Clear 68 20 66 19 94 94 N N/A 30.09 1019 10 16 N/A
2:32 am 02:32 Clear 66 19 66 19 100 100 N N/A 30.09 1019 7 11 N/A
2:51 am 02:51 Clear 68 20 66 19 94 94 S 3 6 30.09 1019 7 11 N/A
3:12 am 03:12 Clear 66 19 66 19 100 100 N N/A 30.09 1019 7 11 N/A
3:32 am 03:32 Clear 66 19 66 19 100 100 N N/A 30.09 1019 7 11 N/A
3:51 am 03:51 Clear 66 19 64 18 94 94 N N/A 30.09 1019 7 11 N/A
4:12 am 04:12 Clear 64 18 64 18 100 100 N N/A 30.09 1019 10 16 N/A
4:32 am 04:32 Clear 66 19 64 18 94 94 N N/A 30.09 1019 7 11 N/A
4:51 am 04:51 Clear 66 19 64 18 94 94 N N/A 30.09 1019 7 11 N/A
5:12 am 05:12 Clear 64 18 64 18 100 100 N N/A 30.09 1019 7 11 N/A
5:32 am 05:32 Clear 64 18 63 17 94 94 N N/A 30.09 1019 7 11 N/A
5:51 am 05:51 Clear 66 19 64 18 94 94 N N/A 30.09 1019 5 8 N/A
6:12 am 06:12 Clear 64 18 64 18 100 100 N N/A 30.09 1019 5 8 N/A
6:32 am 06:32 Clear 64 18 64 18 100 100 N N/A 30.09 1019 4 6 N/A
6:51 am 06:51 Clear 64 18 64 18 100 100 N N/A 30.09 1019 3 5 N/A
7:12 am 07:12 Clear 64 18 63 17 94 94 N N/A 30.12 1020 5 8 N/A
7:32 am 07:32 Sunny 63 17 63 17 100 100 N N/A 30.12 1020 4 6 N/A
7:51 am 07:51 Sunny 63 17 63 17 100 100 N N/A 30.12 1020 4 6 N/A
8:12 am 08:12 Mostly Cloudy 64 18 64 18 100 100 N N/A 30.12 1020 1 2 N/A
8:32 am 08:32 Sunny 68 20 66 19 94 94 SSE 5 7 30.12 1020 4 6 N/A
8:51 am 08:51 Sunny 70 21 68 20 94 94 SSE 3 6 30.12 1020 5 8 N/A
9:12 am 09:12 Sunny 72 22 68 20 88 88 N N/A 30.09 1019 5 8 N/A
9:32 am 09:32 Sunny 73 23 68 20 83 83 N N/A 30.09 1019 7 11 N/A
9:51 am 09:51 Sunny 75 24 70 21 83 83 N N/A 30.09 1019 10 16 N/A
10:12 am 10:12 Sunny 77 25 70 21 79 79 N N/A 30.09 1019 10 16 N/A
10:31 am 10:31 Sunny 79 26 70 21 74 74 N N/A 30.09 1019 10 16 N/A
10:52 am 10:52 Sunny 81 27 70 21 70 70 N N/A 30.09 1019 10 16 N/A
11:12 am 11:12 Sunny 82 28 68 20 62 62 N N/A 30.09 1019 10 16 N/A
11:31 am 11:31 Sunny 82 28 68 20 62 62 N N/A 30.09 1019 10 16 N/A
11:52 am 11:52 Sunny 84 29 68 20 58 58 NNW 5 7 30.09 1019 10 16 N/A
12:12 pm 12:12 Sunny 86 30 70 21 59 59 N 3 6 30.09 1019 10 16 N/A
12:32 pm 12:32 Sunny 86 30 68 20 55 55 NW 3 6 30.09 1019 10 16 N/A
12:52 pm 12:52 Sunny 86 30 68 20 55 55 NNE 5 7 30.09 1019 10 16 N/A
1:12 pm 13:12 Partly Cloudy 88 31 70 21 55 55 NE 5 7 30.09 1019 10 16 N/A
1:32 pm 13:32 Partly Cloudy 88 31 70 21 55 55 N N/A 30.09 1019 10 16 N/A
1:52 pm 13:52 Cloudy 88 31 68 20 52 52 N N/A 30.06 1018 10 16 N/A
2:11 pm 14:11 Partly Cloudy 88 31 68 20 52 52 N N/A 30.06 1018 10 16 N/A
2:32 pm 14:32 Mostly Cloudy 90 32 68 20 49 49 N N/A 30.03 1017 10 16 N/A
2:52 pm 14:52 Partly Cloudy 90 32 68 20 49 49 N N/A 30.03 1017 10 16 N/A
3:11 pm 15:11 Mostly Cloudy 91 33 68 20 46 46 N 7 11 30.03 1017 10 16 N/A
3:32 pm 15:32 Partly Cloudy 88 31 66 19 49 49 N N/A 30.03 1017 10 16 N/A
3:52 pm 15:52 Mostly Cloudy 91 33 66 19 44 44 N N/A 30.00 1016 10 16 N/A
4:11 pm 16:11 Partly Cloudy 88 31 66 19 49 49 NE 5 7 30.03 1017 10 16 N/A
4:32 pm 16:32 Sunny 91 33 66 19 44 44 NNW 3 6 30.00 1016 7 11 N/A
4:52 pm 16:52 Partly Cloudy 91 33 66 19 44 44 NNE 5 7 30.00 1016 10 16 N/A
5:11 pm 17:11 Mostly Cloudy 84 29 66 19 55 55 E 15 24 30.03 1017 10 16 N/A
5:32 pm 17:32 Cloudy 81 27 66 19 62 62 E 13 20 30.03 1017 10 16 N/A
5:52 pm 17:52 Cloudy 77 25 68 20 74 74 ESE 8 13 30.03 1017 10 16 N/A
6:11 pm 18:11 Partly Cloudy 79 26 66 19 65 65 SE 3 6 30.03 1017 10 16 N/A
6:32 pm 18:32 Partly Cloudy 81 27 66 19 62 62 ESE 5 7 30.03 1017 10 16 N/A
6:51 pm 18:51 Sunny 77 25 68 20 74 74 ESE 3 6 30.03 1017 10 16 N/A
7:12 pm 19:12 Sunny 77 25 70 21 79 79 N N/A 30.03 1017 10 16 N/A
7:32 pm 19:32 Sunny 77 25 70 21 79 79 N 5 7 30.03 1017 10 16 N/A
7:51 pm 19:51 Clear 77 25 70 21 79 79 NNE 5 7 30.03 1017 10 16 N/A
8:12 pm 20:12 Clear 73 23 70 21 89 89 NNE 3 6 30.03 1017 10 16 N/A
8:32 pm 20:32 Clear 73 23 70 21 89 89 N N/A 30.03 1017 10 16 N/A
8:51 pm 20:51 Clear 73 23 68 20 83 83 N N/A 30.03 1017 10 16 N/A
9:12 pm 21:12 Clear 72 22 68 20 88 88 N N/A 30.03 1017 10 16 N/A
9:32 pm 21:32 Clear 72 22 68 20 88 88 N N/A 30.03 1017 10 16 N/A
9:51 pm 21:51 Clear 70 21 68 20 94 94 N N/A 30.06 1018 10 16 N/A
10:12 pm 22:12 Clear 68 20 68 20 100 100 N N/A 30.06 1018 10 16 N/A
10:32 pm 22:32 Clear 70 21 68 20 94 94 N N/A 30.06 1018 7 11 N/A
10:51 pm 22:51 Clear 68 20 66 19 94 94 N N/A 30.06 1018 7 11 N/A
11:12 pm 23:12 Clear 68 20 68 20 100 100 N N/A 30.06 1018 7 11 N/A
11:32 pm 23:32 Clear 66 19 66 19 100 100 N N/A 30.06 1018 7 11 N/A
11:51 pm 23:51 Clear 66 19 66 19 100 100 N N/A 30.06 1018 7 11 N/A

Powered by AerisWeather